Home   Weather   Wakefield   Past weeks

Flag for United Kingdom Past Weather in Wakefield, England, United Kingdom — Yesterday and Last 2 Weeks

Now
36 °F

Passing clouds.


Feels Like: 31 °F
Forecast: N/A
Wind: 6 mph from East

Location: Leeds And Bradford

Current Time: Dec 4, 2016 at 10:35:27 pm

Latest Report: Dec 4, 2016 at 9:50 pm


Visibility: N/A

Pressure: 30.27 "Hg

Humidity: 93%

Dew Point: 34 °F

Location of WakefieldLocation

Past Weather in Wakefield — Graph

°F

Wakefield Temperature Yesterday

Maximum temperature yesterday: 41 °F (at 12:20 am)
Minimum temperature yesterday: 39 °F (at 2:20 am)
Average temperature yesterday: 40 °F

High & Low Weather Summary for the Past Weeks

 TemperatureHumidityPressure
High48 °F (Dec 1, 11:50 am)100% (Nov 19, 9:20 pm)30.54 "Hg (Nov 19, 9:20 pm)
Low27 °F (Nov 29, 5:50 am)61% (Nov 26, 5:20 pm)29.06 "Hg (Nov 20, 7:20 am)
Average40 °F91%30.12 "Hg
* Reported Nov 19 9:20 pm — Dec 4 9:20 pm, Wakefield, Weather by CustomWeather, © 2016

Note: Actual official high and low records may vary slightly from our data, if they occured in-between our weather recording intervals... More about our weather records

Advertising

Wakefield Weather History for the Previous 24 Hours

Scroll right to see more
 ConditionsComfort  
Time TempWeatherWind HumidityBarometerVisibility
9:20 pm
Sun, Dec 4
36 °FPassing clouds.5 mph93%30.30 "HgN/A
8:50 pm36 °FPassing clouds.6 mph100%30.30 "HgN/A
8:20 pm37 °FPassing clouds.6 mph93%30.30 "HgN/A
7:50 pm37 °FPassing clouds.7 mph93%30.30 "HgN/A
7:20 pm37 °FPassing clouds.7 mph93%30.30 "HgN/A
6:50 pm36 °FPassing clouds.7 mph100%30.27 "HgN/A
6:20 pm36 °FPassing clouds.8 mph100%30.27 "HgN/A
5:50 pm36 °FPassing clouds.10 mph93%30.27 "HgN/A
5:20 pm36 °FPassing clouds.6 mph93%30.27 "HgN/A
4:50 pm36 °FPassing clouds.9 mph93%30.27 "HgN/A
4:20 pm37 °FPassing clouds.9 mph87%30.27 "HgN/A
3:50 pm37 °FPassing clouds.9 mph93%30.27 "HgN/A
3:20 pm39 °FPassing clouds.10 mph87%30.27 "HgN/A
2:50 pm39 °FPassing clouds.10 mph87%30.27 "HgN/A
2:20 pm39 °FPassing clouds.10 mph87%30.27 "HgN/A
1:50 pm41 °FPassing clouds.10 mph87%30.27 "HgN/A
1:20 pm41 °FScattered clouds.8 mph87%30.27 "HgN/A
12:50 pm41 °FScattered clouds.8 mph87%30.27 "HgN/A
12:20 pm41 °FScattered clouds.10 mph87%30.30 "HgN/A
11:50 am41 °FScattered clouds.8 mph87%30.30 "HgN/A
11:20 am41 °FScattered clouds.8 mph87%30.30 "HgN/A
10:50 am41 °FScattered clouds.9 mph81%30.30 "HgN/A
10:20 am39 °FScattered clouds.8 mph87%30.30 "HgN/A
9:50 am39 °FPartly sunny.8 mph87%30.30 "HgN/A
9:20 am39 °FPartly sunny.7 mph87%30.30 "HgN/A
8:50 am39 °FPartly sunny.8 mph87%30.30 "HgN/A
8:20 am39 °FPartly sunny.8 mph81%30.30 "HgN/A
7:50 am39 °FPassing clouds.7 mph81%30.30 "HgN/A
7:20 am39 °FPassing clouds.7 mph81%30.30 "HgN/A
6:50 am39 °FPassing clouds.9 mph81%30.30 "HgN/A
6:20 am39 °FPassing clouds.7 mph81%30.30 "HgN/A
5:50 am39 °FPassing clouds.8 mph81%30.30 "HgN/A
5:20 am39 °FPassing clouds.10 mph81%30.30 "HgN/A
4:50 am39 °FPassing clouds.9 mph81%30.30 "HgN/A
4:20 am39 °FPassing clouds.8 mph81%30.30 "HgN/A
3:50 am39 °FPassing clouds.9 mph81%30.30 "HgN/A
3:20 am39 °FPassing clouds.9 mph81%30.30 "HgN/A
2:50 am39 °FPassing clouds.9 mph81%30.30 "HgN/A
2:20 am39 °FPassing clouds.9 mph81%30.30 "HgN/A
1:50 am39 °FPassing clouds.7 mph81%30.30 "HgN/A
1:20 am39 °FPassing clouds.8 mph81%30.30 "HgN/A
12:50 am39 °FPassing clouds.5 mph81%30.30 "HgN/A
12:20 am39 °FPassing clouds.5 mph81%30.30 "HgN/A
11:50 pm
Sat, Dec 3
39 °FPassing clouds.5 mph81%30.30 "HgN/A
11:20 pm39 °FPassing clouds.6 mph81%30.30 "HgN/A
10:50 pm39 °FPassing clouds.6 mph81%30.30 "HgN/A
10:20 pm39 °FPassing clouds.7 mph81%30.30 "HgN/A
Weather by CustomWeather, © 2016

See weather overviewHow to use our weather pages